Details From LBSF - Sofia
To LBBG - Burgas
Flight Number -
Tags Routegen
Created
Modified
Stats Distance 219 nm / 406 km
Max Altitude 0 ft / 0 m
Waypoints 5
Social Downloads 6
Likes 0
Share VATSIM

Download

Looking for another format? Having issues loading an existing format? Contact us
Advertisement - Login to hide

Notes

None

Route

LBSF +42.71_+023.19 +42.85_+023.21 +42.25_+027.09 LBBG

ID Type Via Altitude (ft/m) Position (lat/lon) Dist (leg/tot) Name
O LBSF APT - 0 / 0 42.69629 / 23.38894 - / 0 nm
+42.71_+023.19 DME - 0 / 0 42.70869 / 23.19272 8 / 8 nm
+42.85_+023.21 DME - 0 / 0 42.85287 / 23.20981 8 / 17 nm
+42.25_+027.09 DME - 0 / 0 42.24822 / 27.09211 175 / 192 nm
O LBBG APT - 0 / 0 42.55983 / 27.50160 26 / 219 nm

Altitude Profile

Advertisement - Login to hide

Weather


0- 5 10 15 20 25 30 35+ Temperature / °C

Clouds and Precipitation
Forecast for 2020-01-28 06:00 UTC. Updated 7 minutes ago

Ground ~20,000 ft ~40,000 ft Winds

LBSF

Details ICAO LBSF (SOF)
Name Sofia
Region Bulgaria
Timezone Europe/Sofia (UTC+2.0)
Stats Elevation 1,741 ft / 531 m (AMSL)
Location 42.696400° 23.417900°
Runways 1
Magnetic Variation 5.156° E

METAR

LBSF 280330Z 32007KT 290V350 9999 SCT023 03/01 Q1015 R99/29//95 NOSIG

Decode

TAF

TAF LBSF 272300Z 2800/2824 30010KT 9999 SCT015 BKN025 TEMPO 2804/2807 4000 BR SCT005 BKN010 BECMG 2808/2810 SCT040 BECMG 2817/2819 VRB04KT

Decode

Departure Runways

ID Width Length Bearing (true/mag) Surface Threshold Overrun Markings Lighting
09 148 ft / 45 m 11,777 ft / 3,590 m 94.64° / 89.48° ASPHALT 978 ft / 298 m 390 ft / 119 m PREC-APP CENTERLINE EDGE THRESHOLD ALSF-I REIL-OMNI
27 148 ft / 45 m 11,777 ft / 3,590 m 274.67° / 269.51° ASPHALT 0 ft / 0 m 397 ft / 121 m PREC-APP CENTERLINE EDGE THRESHOLD ALSF-II TDZ REIL-OMNI

LBBG

Details ICAO LBBG (BOJ)
Name Burgas
Region Bulgaria
Timezone Europe/Sofia (UTC+2.0)
Stats Elevation 134 ft / 41 m (AMSL)
Location 42.570100° 27.515300°
Runways 1
Magnetic Variation 5.721° E

METAR

LBBG 280330Z 30007KT 270V330 9999 SCT048 08/05 Q1013 NOSIG

Decode

TAF

TAF LBBG 272300Z 2800/2824 34010KT 7000 SCT020 BKN035 TEMPO 2800/2805 2000 RA BR SCT010 OVC030 BECMG 2806/2808 27012KT BECMG 2817/2819 VRB04KT

Decode

Destination Runways

ID Width Length Bearing (true/mag) Surface Threshold Overrun Markings Lighting
04 148 ft / 45 m 10,509 ft / 3,203 m 44.26° / 38.54° CONCRETE 0 ft / 0 m 0 ft / 0 m PREC-APP CENTERLINE EDGE THRESHOLD ALSF-I
22 148 ft / 45 m 10,509 ft / 3,203 m 224.28° / 218.56° CONCRETE 0 ft / 0 m 0 ft / 0 m PREC-APP CENTERLINE EDGE THRESHOLD ALSF-II TDZ

Approach Navaids

Runway Type Ident Frequency Range Bearing (true/mag) Slope Elevation
22 OM OM - - 224.28° / 218.56 ° - 135 ft / 41 m (AMSL)
22 GS IBG 110.30 MHz 10 nm / 19 km 224.27° / 218.55 ° 3.00° 134 ft / 41 m (AMSL)
22 LOC-ILS IBG 110.30 MHz 18 nm / 33 km 224.27° / 218.55 ° - 134 ft / 41 m (AMSL)
22 MM MM - - 224.28° / 218.56 ° - 135 ft / 41 m (AMSL)

Popular Alternatives